STARLINK-2512, 48319

Orbit data source: Space-Track

STARLINK-2512, 48319 is a payload satellite owned by SpaceX/Seattle (US) in LEO that was launched on Thu, 29 Apr 2021 UTC via an FALCON 9 launch vehicle from the Air Force Eastern Test Range (AFETR). Payload-class satellites include a variety of spacecraft equipped with specific instruments for various scientific and technological missions. These include communications satellites like Starlink; space stations such as the ISS; scientific satellites like the Hubble; Earth observation satellites from companies like Planet Labs, Umbra, and HawkEye 360; GPS; miniature CubeSats for education and research; and military/defense satellites.

Loading next visibility...
Identifier
48319, 2021-036AV
Orbit
LEO
Country
Flag of USUS
Related business
Manufacturer
SpaceX/Seattle
Mission
Operational Commercial Communications
Bus & Motor
STARLINK, Unknown motor
Mass
260 kg wet, ~248 kg dry
Launch date (UTC)
2021-04-29 (4 years ago)
Launch vehicle
FALCON 9
Launch site
Air Force Eastern Test Range (AFETR)
Object type
Payload
Rocket body
Debris
Shape & HBR
Box + 1 Pan, 10.1 m
Radar Cross Section
13.562 m², Large (>1 m²)

Expand to show TLE details & history
Last TLE update: 6 hours ago

TLE from 6 hours ago
0 STARLINK-2512
1 48319U 21036AV  25291.27423702  .00005248  00000-0  37086-3 0  9999
2 48319  53.0554  20.9332 0001347  97.2802 262.8340 15.06409233246562
Epoch: 2025-10-18T06:34Z
TLE epoch observation values (Epoch: 2025-10-18T06:34:54.078Z)
Latitude
-0.00003°
Longitude
-104.79976°
Altitude
548.179 km
Speed
7.589 km/s
True Right ascension
01h 23m 43s
True Declination
0° 00' 00"
Sunlit
Object was in full shadow at epoch
Visualization orbit readout
Latitude
Unknown
Longitude
Unknown
Altitude
Unknown
Speed
Unknown
Apparent Right ascension
Unknown
Apparent Declination
Unknown
Sunlit
N/A
Visualization observer readout
Local Sidereal Time
07:41:03
Azimuth
Unknown
Elevation
Unknown
Doppler factor
Unknown
Orbital elements
Apogee altitude
548.387 km
Perigee altitude
546.521 km
Semi-major axis
6,925.591 km
Eccentricity
0.00013
Inclination
53.0554°
RAAN
20.9332°
Arg. of periapsis
97.2802°
True anomaly
262.81869°
Mean anomaly
262.834°
Eccentric anomaly
262.82634°
Mean motion
3.76581 °/min
Orbital period
95.6 mins
BSTAR
0.00037086
Loading maneuver chart data...
Computing Atmospheric mass density...
Loading historical data...
Loading historical data...
Loading historical data...
Loading historical data...
Loading historical data...
Loading historical data...
Loading historical data...

Documentation

Showing up to 5 results
|